Location: Kitchener
(43.4500°N, 80.5000°W)
Time: 14:52:19
(UTC-04:00)

OTV 5 (USA 277) - Visible Passes

Search period start: 25 May 2018 00:00
Search period end: 04 June 2018 00:00
Orbit: 308 x 326 km, 54.5° (Epoch: 06 May)

Date Brightness Start Highest point End Pass type
(mag) Time Alt. Az. Time Alt. Az. Time Alt. Az.
29 May ? 04:55:08 10° S 04:57:25 24° SE 04:59:43 10° ENE visible
30 May ? 05:08:59 10° SW 05:11:41 68° SE 05:14:27 10° NE visible
31 May ? 03:51:42 14° SE 03:52:04 15° SE 03:53:44 10° E visible
01 Jun ? 04:05:31 30° S 04:06:18 38° SE 04:08:53 10° ENE visible
02 Jun ? 04:19:15 25° WSW 04:20:38 72° NW 04:23:24 10° NE visible
03 Jun ? 03:02:05 17° E 03:02:05 17° E 03:03:10 10° ENE visible
03 Jun ? 04:32:56 12° W 04:35:08 29° NNW 04:37:38 10° NE visible
